| time (UTC) | temp F | wind direction | speed MPH | gust MPH | rain 1hr in | rain 24hr in | rain mn in | humidity % | barometer mb |
| 20260904163706 | 67 | 240 | 3.0 | 7.0 | 0.00 | 0.02 | 0.00 | 54 | 1017.0 |
| 20260904163219 | 67 | 199 | 8.0 | 11.0 | 0.00 | 0.02 | 0.00 | 54 | 1016.9 |
| 20260904162608 | 67 | 80 | 2.0 | 3.0 | 0.00 | 0.02 | 0.00 | 54 | 1017.0 |
| 20260904162108 | 67 | 74 | 4.0 | 8.0 | 0.00 | 0.02 | 0.00 | 53 | 1016.8 |
| 20260904161558 | 67 | 98 | 7.0 | 11.0 | 0.00 | 0.02 | 0.00 | 54 | 1016.9 |
| 20260904161055 | 67 | 196 | 3.0 | 5.0 | 0.00 | 0.02 | 0.00 | 55 | 1016.6 |
| 20260904160609 | 67 | 226 | 3.0 | 8.0 | 0.00 | 0.02 | 0.00 | 55 | 1016.7 |
| 20260904160109 | 67 | 254 | 4.0 | 5.0 | 0.00 | 0.02 | 0.00 | 55 | 1016.6 |
| 20260904155609 | 67 | 267 | 5.0 | 9.0 | 0.00 | 0.02 | 0.00 | 54 | 1016.7 |
| 20260904155058 | 68 | 312 | 4.0 | 4.0 | 0.00 | 0.02 | 0.00 | 55 | 1016.9 |
| 20260904154557 | 68 | 277 | 2.0 | 2.0 | 0.00 | 0.02 | 0.00 | 56 | 1016.8 |
| 20260904154057 | 68 | 273 | 2.0 | 3.0 | 0.00 | 0.02 | 0.00 | 55 | 1016.9 |
| 20260904153555 | 68 | 267 | 3.0 | 4.0 | 0.00 | 0.02 | 0.00 | 55 | 1016.8 |
| 20260904153009 | 68 | 266 | 4.0 | 4.0 | 0.00 | 0.02 | 0.00 | 54 | 1016.8 |
| 20260904152509 | 68 | 277 | 4.0 | 8.0 | 0.00 | 0.02 | 0.00 | 53 | 1016.7 |
| 20260904152009 | 68 | 293 | 5.0 | 8.0 | 0.00 | 0.02 | 0.00 | 52 | 1016.7 |
| 20260904151509 | 69 | 287 | 4.0 | 6.0 | 0.00 | 0.02 | 0.00 | 51 | 1016.6 |
| 20260904151008 | 69 | 274 | 4.0 | 4.0 | 0.00 | 0.02 | 0.00 | 51 | 1016.7 |
| 20260904150458 | 69 | 258 | 6.0 | 10.0 | 0.00 | 0.02 | 0.00 | 51 | 1016.7 |
| 20260904150012 | 69 | 250 | 6.0 | 11.0 | 0.00 | 0.02 | 0.00 | 50 | 1016.8 |
| 20260904145502 | 69 | 284 | 4.0 | 7.0 | 0.00 | 0.02 | 0.00 | 50 | 1016.6 |
| 20260904145002 | 69 | 277 | 4.0 | 8.0 | 0.00 | 0.02 | 0.00 | 49 | 1016.7 |
| 20260904144502 | 69 | 248 | 3.0 | 5.0 | 0.00 | 0.02 | 0.00 | 50 | 1016.6 |
| 20260904144001 | 69 | 241 | 5.0 | 8.0 | 0.00 | 0.02 | 0.00 | 50 | 1016.5 |
| 20260904143501 | 69 | 231 | 5.0 | 9.0 | 0.00 | 0.02 | 0.00 | 49 | 1016.3 |
| 20260904143013 | 69 | 216 | 3.0 | 5.0 | 0.00 | 0.02 | 0.00 | 49 | 1016.5 |
| 20260904142403 | 69 | 212 | 8.0 | 11.0 | 0.00 | 0.02 | 0.00 | 50 | 1016.3 |
| 20260904141902 | 69 | 262 | 5.0 | 8.0 | 0.00 | 0.02 | 0.00 | 52 | 1016.3 |
| 20260904141402 | 69 | 283 | 3.0 | 4.0 | 0.00 | 0.02 | 0.00 | 53 | 1016.3 |
| 20260904140901 | 68 | 316 | 3.0 | 5.0 | 0.00 | 0.02 | 0.00 | 53 | 1016.3 |
| 20260904140401 | 68 | 300 | 4.0 | 5.0 | 0.00 | 0.02 | 0.00 | 53 | 1016.3 |
| 20260904135901 | 68 | 316 | 3.0 | 4.0 | 0.00 | 0.02 | 0.00 | 53 | 1016.2 |
| 20260904135400 | 68 | 282 | 3.0 | 5.0 | 0.00 | 0.02 | 0.00 | 53 | 1016.3 |
| 20260904134859 | 68 | 261 | 8.0 | 15.0 | 0.00 | 0.02 | 0.00 | 53 | 1016.4 |
| 20260904134359 | 68 | 301 | 4.0 | 8.0 | 0.00 | 0.02 | 0.00 | 53 | 1016.3 |
| 20260904133858 | 69 | 311 | 5.0 | 11.0 | 0.00 | 0.02 | 0.00 | 53 | 1016.1 |
| 20260904133358 | 68 | 303 | 6.0 | 8.0 | 0.00 | 0.02 | 0.00 | 53 | 1016.2 |
| 20260904132857 | 68 | 283 | 3.0 | 4.0 | 0.00 | 0.02 | 0.00 | 53 | 1016.0 |
| 20260904132257 | 68 | 267 | 3.0 | 5.0 | 0.00 | 0.02 | 0.00 | 54 | 1016.1 |
| 20260904131757 | 68 | 259 | 4.0 | 8.0 | 0.00 | 0.02 | 0.00 | 53 | 1015.9 |
| 20260904131156 | 68 | 251 | 4.0 | 5.0 | 0.00 | 0.02 | 0.00 | 53 | 1016.1 |
| 20260904130656 | 69 | 234 | 4.0 | 5.0 | 0.00 | 0.02 | 0.00 | 53 | 1016.0 |
| 20260904130211 | 69 | 230 | 7.0 | 11.0 | 0.00 | 0.02 | 0.00 | 52 | 1016.2 |
| 20260904125230 | 69 | 240 | 4.0 | 8.0 | 0.00 | 0.02 | 0.00 | 55 | 1016.0 |
| 20260904124315 | 69 | 189 | 5.0 | 8.0 | 0.00 | 0.02 | 0.00 | 60 | 1015.7 |
| 20260904123505 | 69 | 147 | 6.0 | 8.0 | 0.00 | 0.02 | 0.00 | 60 | 1015.6 |
| 20260904122704 | 69 | 269 | 2.0 | 4.0 | 0.00 | 0.02 | 0.00 | 61 | 1015.4 |
| 20260904121919 | 68 | 293 | 4.0 | 8.0 | 0.00 | 0.02 | 0.00 | 60 | 1015.3 |
| 20260904121109 | 68 | 327 | 6.0 | 8.0 | 0.00 | 0.02 | 0.00 | 60 | 1015.4 |
| 20260904120308 | 69 | 295 | 5.0 | 8.0 | 0.00 | 0.02 | 0.00 | 61 | 1015.4 |
| 20260904115508 | 68 | 285 | 5.0 | 7.0 | 0.00 | 0.02 | 0.00 | 61 | 1015.3 |
| 20260904114707 | 69 | 292 | 4.0 | 5.0 | 0.00 | 0.02 | 0.00 | 61 | 1015.1 |
| 20260904113907 | 69 | 274 | 6.0 | 8.0 | 0.00 | 0.02 | 0.00 | 61 | 1015.2 |
| 20260904113107 | 69 | 277 | 4.0 | 5.0 | 0.00 | 0.02 | 0.00 | 61 | 1015.0 |
| 20260904112306 | 69 | 253 | 6.0 | 9.0 | 0.00 | 0.02 | 0.00 | 61 | 1015.0 |
| 20260904111506 | 69 | 238 | 5.0 | 8.0 | 0.00 | 0.02 | 0.00 | 61 | 1014.6 |
| 20260904110705 | 69 | 245 | 5.0 | 10.0 | 0.00 | 0.02 | 0.00 | 61 | 1015.1 |
| 20260904105904 | 69 | 225 | 5.0 | 8.0 | 0.00 | 0.02 | 0.00 | 63 | 1014.5 |
| 20260904105104 | 69 | 216 | 3.0 | 4.0 | 0.00 | 0.02 | 0.00 | 64 | 1014.6 |
| 20260904104304 | 69 | 214 | 3.0 | 5.0 | 0.00 | 0.02 | 0.00 | 64 | 1014.4 |
| 20260904103503 | 69 | 214 | 4.0 | 7.0 | 0.00 | 0.02 | 0.00 | 64 | 1014.6 |
| 20260904102703 | 69 | 206 | 6.0 | 8.0 | 0.00 | 0.02 | 0.00 | 65 | 1014.5 |
| 20260904101918 | 69 | 336 | 2.0 | 4.0 | 0.00 | 0.02 | 0.00 | 69 | 1014.6 |
| 20260904101107 | 69 | 301 | 4.0 | 7.0 | 0.00 | 0.02 | 0.00 | 68 | 1014.5 |
| 20260904100307 | 69 | 255 | 3.0 | 4.0 | 0.00 | 0.02 | 0.00 | 68 | 1014.4 |
| 20260904095511 | 69 | 242 | 3.0 | 5.0 | 0.00 | 0.02 | 0.00 | 70 | 1014.2 |
| 20260904095001 | 69 | 263 | 3.0 | 4.0 | 0.00 | 0.02 | 0.00 | 70 | 1014.1 |
| 20260904094501 | 69 | 276 | 5.0 | 9.0 | 0.00 | 0.02 | 0.00 | 70 | 1013.8 |
| 20260904094000 | 68 | 305 | 4.0 | 4.0 | 0.00 | 0.02 | 0.00 | 70 | 1013.9 |
| 20260904093515 | 69 | 316 | 6.0 | 8.0 | 0.00 | 0.02 | 0.00 | 69 | 1013.8 |
| 20260904093005 | 69 | 297 | 6.0 | 11.0 | 0.00 | 0.02 | 0.00 | 70 | 1013.8 |
| 20260904092504 | 68 | 283 | 7.0 | 11.0 | 0.00 | 0.02 | 0.00 | 71 | 1013.7 |
| 20260904092004 | 68 | 271 | 4.0 | 8.0 | 0.00 | 0.02 | 0.00 | 71 | 1013.5 |
| 20260904091503 | 68 | 286 | 6.0 | 12.0 | 0.00 | 0.02 | 0.00 | 71 | 1013.5 |
| 20260904091002 | 68 | 273 | 7.0 | 11.0 | 0.00 | 0.02 | 0.00 | 72 | 1013.4 |
| 20260904090502 | 68 | 275 | 3.0 | 5.0 | 0.00 | 0.02 | 0.00 | 73 | 1013.5 |
| 20260904090001 | 67 | 274 | 6.0 | 8.0 | 0.00 | 0.02 | 0.00 | 73 | 1013.5 |
| 20260904085501 | 67 | 299 | 8.0 | 11.0 | 0.00 | 0.02 | 0.00 | 75 | 1013.5 |
| 20260904085000 | 67 | 286 | 2.0 | 4.0 | 0.00 | 0.02 | 0.00 | 79 | 1013.4 |
| 20260904084515 | 67 | 277 | 3.0 | 5.0 | 0.00 | 0.02 | 0.00 | 80 | 1013.5 |
| 20260904084019 | 66 | 272 | 5.0 | 9.0 | 0.00 | 0.02 | 0.00 | 81 | 1013.2 |
| 20260904083509 | 66 | 285 | 2.0 | 3.0 | 0.00 | 0.02 | 0.00 | 83 | 1013.2 |
| 20260904082958 | 66 | 290 | 2.0 | 4.0 | 0.00 | 0.02 | 0.00 | 83 | 1012.9 |
| 20260904082455 | 66 | 281 | 3.0 | 4.0 | 0.00 | 0.02 | 0.00 | 83 | 1013.1 |
| 20260904081955 | 66 | 257 | 2.0 | 3.0 | 0.00 | 0.02 | 0.00 | 83 | 1013.1 |
| 20260904081510 | 65 | 278 | 4.0 | 8.0 | 0.00 | 0.02 | 0.00 | 83 | 1013.0 |
| 20260904080955 | 65 | 313 | 4.0 | 5.0 | 0.00 | 0.02 | 0.00 | 84 | 1013.0 |
| 20260904080509 | 65 | 307 | 4.0 | 8.0 | 0.01 | 0.02 | 0.00 | 84 | 1013.1 |
| 20260904080009 | 65 | 329 | 2.0 | 4.0 | 0.01 | 0.02 | 0.00 | 83 | 1013.3 |
| 20260904075509 | 66 | 331 | 3.0 | 8.0 | 0.02 | 0.02 | 0.00 | 83 | 1013.1 |
| 20260904075009 | 66 | 321 | 7.0 | 11.0 | 0.02 | 0.02 | 0.00 | 83 | 1012.9 |
| 20260904074509 | 66 | 291 | 5.0 | 8.0 | 0.02 | 0.02 | 0.00 | 85 | 1012.9 |
| 20260904074008 | 66 | 269 | 3.0 | 4.0 | 0.02 | 0.02 | 0.00 | 87 | 1012.8 |
| 20260904073508 | 66 | 276 | 4.0 | 7.0 | 0.02 | 0.02 | 0.00 | 86 | 1012.8 |
| 20260904073008 | 66 | 298 | 3.0 | 5.0 | 0.02 | 0.02 | 0.00 | 86 | 1012.8 |
| 20260904072508 | 66 | 292 | 5.0 | 8.0 | 0.02 | 0.02 | 0.00 | 86 | 1012.8 |
| 20260904072008 | 66 | 276 | 5.0 | 8.0 | 0.02 | 0.02 | 0.00 | 87 | 1012.5 |
| 20260904071507 | 66 | 278 | 6.0 | 8.0 | 0.02 | 0.02 | 0.00 | 88 | 1012.7 |
| 20260904071007 | 67 | 299 | 7.0 | 11.0 | 0.02 | 0.02 | 0.00 | 91 | 1012.1 |
| 20260904070512 | 67 | 279 | 5.0 | 8.0 | 0.01 | 0.01 | 0.00 | 91 | 1011.8 |
| 20260904070001 | 68 | 248 | 4.0 | 5.0 | 0.01 | 0.01 | 0.00 | 89 | 1011.7 |
| 20260904065501 | 68 | 240 | 4.0 | 5.0 | 0.00 | 0.00 | 0.00 | 88 | 1011.4 |
| 20260904065001 | 68 | 242 | 7.0 | 9.0 | 0.00 | 0.00 | 0.00 | 87 | 1011.3 |
| 20260904064501 | 68 | 223 | 4.0 | 5.0 | 0.00 | 0.00 | 0.00 | 88 | 1011.2 |
| 20260904064015 | 68 | 223 | 4.0 | 5.0 | 0.00 | 0.00 | 0.00 | 88 | 1011.2 |
| 20260904063505 | 67 | 222 | 4.0 | 4.0 | 0.00 | 0.00 | 0.00 | 89 | 1011.1 |
| 20260904063005 | 67 | 223 | 4.0 | 7.0 | 0.00 | 0.00 | 0.00 | 89 | 1011.2 |
| 20260904062504 | 67 | 226 | 5.0 | 7.0 | 0.00 | 0.00 | 0.00 | 89 | 1011.1 |
| 20260904062019 | 67 | 227 | 4.0 | 6.0 | 0.00 | 0.00 | 0.00 | 88 | 1011.3 |
| 20260904061509 | 67 | 240 | 3.0 | 8.0 | 0.00 | 0.00 | 0.00 | 87 | 1011.4 |
| 20260904061008 | 68 | 241 | 5.0 | 8.0 | 0.00 | 0.00 | 0.00 | 86 | 1011.2 |
| 20260904060507 | 68 | 251 | 4.0 | 5.0 | 0.00 | 0.00 | 0.00 | 85 | 1011.5 |
| 20260904060007 | 68 | 255 | 4.0 | 5.0 | 0.00 | 0.00 | 0.00 | 84 | 1011.2 |
| 20260904055507 | 68 | 256 | 4.0 | 6.0 | 0.00 | 0.00 | 0.00 | 83 | 1011.3 |
| 20260904055007 | 68 | 261 | 6.0 | 9.0 | 0.00 | 0.00 | 0.00 | 83 | 1011.4 |
| 20260904054456 | 68 | 264 | 5.0 | 8.0 | 0.00 | 0.00 | 0.00 | 83 | 1011.4 |
| 20260904054011 | 68 | 280 | 4.0 | 7.0 | 0.00 | 0.00 | 0.00 | 82 | 1011.4 |
| 20260904053501 | 68 | 286 | 8.0 | 11.0 | 0.00 | 0.00 | 0.00 | 82 | 1011.3 |
| 20260904053001 | 68 | 289 | 6.0 | 8.0 | 0.00 | 0.00 | 0.00 | 83 | 1011.4 |
| 20260904052500 | 68 | 276 | 8.0 | 13.0 | 0.00 | 0.00 | 0.00 | 83 | 1011.3 |
| 20260904052000 | 68 | 295 | 8.0 | 10.0 | 0.00 | 0.00 | 0.00 | 83 | 1011.5 |
| 20260904051457 | 68 | 268 | 6.0 | 13.0 | 0.00 | 0.00 | 0.00 | 84 | 1011.5 |
| 20260904050957 | 68 | 242 | 8.0 | 11.0 | 0.00 | 0.00 | 0.00 | 84 | 1011.7 |
| 20260904050456 | 68 | 209 | 5.0 | 7.0 | 0.00 | 0.00 | 0.00 | 84 | 1011.7 |
| 20260904050026 | 68 | 219 | 9.0 | 12.0 | 0.00 | 0.00 | 0.00 | 85 | 1011.7 |
| 20260904045506 | 68 | 191 | 7.0 | 8.0 | 0.00 | 0.00 | 0.00 | 85 | 1011.7 |
| 20260904045005 | 68 | 206 | 9.0 | 11.0 | 0.00 | 0.00 | 0.00 | 85 | 1011.8 |
| 20260904044505 | 68 | 276 | 4.0 | 8.0 | 0.00 | 0.00 | 0.00 | 85 | 1011.8 |
| 20260904044019 | 68 | 272 | 4.0 | 6.0 | 0.00 | 0.00 | 0.00 | 85 | 1011.9 |
| 20260904043509 | 68 | 278 | 5.0 | 8.0 | 0.00 | 0.00 | 0.00 | 85 | 1011.8 |
| 20260904043006 | 68 | 294 | 4.0 | 6.0 | 0.00 | 0.00 | 0.00 | 85 | 1011.9 |
| 20260904042506 | 68 | 280 | 6.0 | 10.0 | 0.00 | 0.00 | 0.00 | 85 | 1011.8 |
| 20260904041955 | 68 | 266 | 8.0 | 10.0 | 0.00 | 0.00 | 0.00 | 85 | 1012.1 |
| 20260904041510 | 68 | 251 | 7.0 | 11.0 | 0.00 | 0.00 | 0.00 | 85 | 1012.1 |
| 20260904041010 | 68 | 244 | 8.0 | 12.0 | 0.00 | 0.00 | 0.00 | 86 | 1012.1 |
| 20260904040509 | 68 | 249 | 8.0 | 13.0 | 0.00 | 0.00 | 0.00 | 86 | 1012.1 |
| 20260904040009 | 68 | 261 | 9.0 | 14.0 | 0.00 | 0.00 | 0.00 | 86 | 1012.1 |
| 20260904035509 | 68 | 296 | 5.0 | 7.0 | 0.00 | 0.00 | 0.00 | 87 | 1012.1 |
| 20260904035008 | 68 | 273 | 4.0 | 5.0 | 0.00 | 0.00 | 0.00 | 87 | 1012.4 |
| 20260904034508 | 67 | 246 | 5.0 | 9.0 | 0.00 | 0.00 | 0.00 | 88 | 1012.4 |
| 20260904034008 | 67 | 250 | 5.0 | 8.0 | 0.00 | 0.00 | 0.00 | 88 | 1012.3 |
| 20260904033508 | 67 | 275 | 8.0 | 11.0 | 0.00 | 0.00 | 0.00 | 88 | 1012.4 |
| 20260904033007 | 67 | 241 | 7.0 | 9.0 | 0.00 | 0.00 | 0.00 | 88 | 1012.5 |
| 20260904032507 | 67 | 251 | 8.0 | 11.0 | 0.00 | 0.00 | 0.00 | 87 | 1012.7 |
| 20260904032007 | 67 | 236 | 4.0 | 6.0 | 0.00 | 0.00 | 0.00 | 86 | 1012.6 |
| 20260904031506 | 67 | 234 | 4.0 | 4.0 | 0.00 | 0.00 | 0.00 | 86 | 1012.7 |
| 20260904031006 | 67 | 225 | 4.0 | 8.0 | 0.00 | 0.00 | 0.00 | 86 | 1012.9 |
| 20260904030510 | 67 | 238 | 6.0 | 8.0 | 0.00 | 0.00 | 0.00 | 85 | 1013.0 |
| 20260904030015 | 67 | 252 | 4.0 | 6.0 | 0.00 | 0.00 | 0.00 | 85 | 1012.9 |
| 20260904025509 | 68 | 235 | 4.0 | 6.0 | 0.00 | 0.00 | 0.00 | 85 | 1013.2 |
| 20260904024959 | 68 | 243 | 4.0 | 8.0 | 0.00 | 0.00 | 0.00 | 84 | 1013.1 |
| 20260904024458 | 68 | 271 | 5.0 | 8.0 | 0.00 | 0.00 | 0.00 | 84 | 1013.4 |
| 20260904023958 | 68 | 284 | 9.0 | 13.0 | 0.00 | 0.00 | 0.00 | 84 | 1013.3 |
| 20260904023458 | 68 | 226 | 8.0 | 11.0 | 0.00 | 0.00 | 0.00 | 84 | 1013.2 |
| 20260904022957 | 68 | 168 | 4.0 | 5.0 | 0.00 | 0.00 | 0.00 | 83 | 1013.2 |
| 20260904022457 | 68 | 226 | 6.0 | 11.0 | 0.00 | 0.00 | 0.00 | 83 | 1013.2 |
| 20260904021956 | 68 | 280 | 3.0 | 5.0 | 0.00 | 0.00 | 0.00 | 83 | 1013.3 |
| 20260904021455 | 68 | 273 | 4.0 | 7.0 | 0.00 | 0.00 | 0.00 | 83 | 1013.4 |
| 20260904021010 | 68 | 274 | 6.0 | 9.0 | 0.00 | 0.00 | 0.00 | 83 | 1013.3 |
| 20260904020500 | 68 | 303 | 7.0 | 9.0 | 0.00 | 0.00 | 0.00 | 82 | 1013.4 |
| 20260904020000 | 68 | 276 | 8.0 | 9.0 | 0.00 | 0.00 | 0.00 | 82 | 1013.5 |
| 20260904015459 | 68 | 274 | 6.0 | 10.0 | 0.00 | 0.00 | 0.00 | 82 | 1013.5 |
| 20260904014959 | 68 | 281 | 4.0 | 6.0 | 0.00 | 0.00 | 0.00 | 81 | 1013.7 |
| 20260904014459 | 68 | 263 | 7.0 | 9.0 | 0.00 | 0.00 | 0.00 | 81 | 1013.5 |
| 20260904013958 | 68 | 258 | 4.0 | 4.0 | 0.00 | 0.00 | 0.00 | 81 | 1013.6 |
| 20260904013458 | 68 | 251 | 4.0 | 7.0 | 0.00 | 0.00 | 0.00 | 81 | 1013.6 |
| 20260904012957 | 67 | 244 | 5.0 | 8.0 | 0.00 | 0.00 | 0.00 | 81 | 1013.9 |
| 20260904012457 | 67 | 255 | 4.0 | 7.0 | 0.00 | 0.00 | 0.00 | 81 | 1013.7 |
| 20260904011956 | 67 | 212 | 4.0 | 7.0 | 0.00 | 0.00 | 0.00 | 81 | 1014.0 |
| 20260904011456 | 67 | 244 | 4.0 | 7.0 | 0.00 | 0.00 | 0.00 | 81 | 1014.1 |
| 20260904010955 | 67 | 235 | 3.0 | 4.0 | 0.00 | 0.00 | 0.00 | 81 | 1014.2 |
| 20260904010010 | 67 | 214 | 4.0 | 6.0 | 0.00 | 0.00 | 0.00 | 81 | 1014.3 |
| 20260904005459 | 67 | 223 | 5.0 | 6.0 | 0.00 | 0.00 | 0.00 | 81 | 1014.2 |
| 20260904004514 | 68 | 222 | 5.0 | 8.0 | 0.00 | 0.00 | 0.00 | 81 | 1014.4 |
| 20260904003519 | 67 | 205 | 4.0 | 5.0 | 0.00 | 0.00 | 0.00 | 81 | 1014.4 |
| 20260904003008 | 67 | 213 | 4.0 | 6.0 | 0.00 | 0.00 | 0.00 | 81 | 1014.5 |
| 20260904002008 | 67 | 246 | 4.0 | 6.0 | 0.00 | 0.00 | 0.00 | 81 | 1014.5 |
| 20260904001507 | 67 | 251 | 4.0 | 6.0 | 0.00 | 0.00 | 0.00 | 81 | 1014.4 |
| 20260904001005 | 67 | 270 | 4.0 | 6.0 | 0.00 | 0.00 | 0.00 | 81 | 1014.7 |
| 20260904000502 | 67 | 258 | 8.0 | 13.0 | 0.00 | 0.00 | 0.00 | 81 | 1014.6 |
| 20260904000002 | 67 | 250 | 5.0 | 8.0 | 0.00 | 0.00 | 0.00 | 82 | 1014.8 |
| 20260903235501 | 67 | 240 | 2.0 | 4.0 | 0.00 | 0.00 | 0.00 | 82 | 1014.9 |
| 20260903235001 | 67 | 240 | 4.0 | 5.0 | 0.00 | 0.00 | 0.00 | 82 | 1015.1 |
| 20260903234501 | 67 | 257 | 5.0 | 7.0 | 0.00 | 0.00 | 0.00 | 82 | 1015.3 |
| 20260903233500 | 67 | 269 | 4.0 | 5.0 | 0.00 | 0.00 | 0.00 | 83 | 1015.3 |
| 20260903233000 | 67 | 269 | 4.0 | 8.0 | 0.00 | 0.00 | 0.00 | 83 | 1015.4 |
| 20260903232500 | 67 | 269 | 8.0 | 9.0 | 0.00 | 0.00 | 0.00 | 84 | 1015.5 |
| 20260903231959 | 67 | 264 | 4.0 | 7.0 | 0.00 | 0.00 | 0.00 | 84 | 1015.5 |
| 20260903231458 | 67 | 255 | 3.0 | 5.0 | 0.00 | 0.00 | 0.00 | 85 | 1015.7 |
| 20260903230958 | 67 | 232 | 4.0 | 8.0 | 0.00 | 0.00 | 0.00 | 85 | 1015.7 |
| 20260903230458 | 67 | 251 | 7.0 | 10.0 | 0.00 | 0.00 | 0.00 | 85 | 1015.8 |
| 20260903225958 | 67 | 236 | 2.0 | 3.0 | 0.00 | 0.00 | 0.00 | 86 | 1015.9 |
| 20260903225512 | 67 | 230 | 2.0 | 4.0 | 0.00 | 0.00 | 0.00 | 86 | 1015.9 |
| 20260903225012 | 67 | 234 | 3.0 | 4.0 | 0.00 | 0.00 | 0.00 | 87 | 1016.0 |
| 20260903224511 | 67 | 236 | 4.0 | 8.0 | 0.00 | 0.00 | 0.00 | 87 | 1016.0 |
| 20260903223515 | 66 | 251 | 3.0 | 5.0 | 0.00 | 0.00 | 0.00 | 88 | 1016.3 |
| 20260903223003 | 66 | 245 | 2.0 | 4.0 | 0.00 | 0.00 | 0.00 | 88 | 1016.3 |
| 20260903222502 | 67 | 249 | 3.0 | 5.0 | 0.00 | 0.00 | 0.00 | 88 | 1016.3 |
| 20260903221502 | 67 | 246 | 3.0 | 4.0 | 0.00 | 0.00 | 0.00 | 88 | 1016.5 |
| 20260903221001 | 67 | 231 | 2.0 | 4.0 | 0.00 | 0.00 | 0.00 | 87 | 1016.3 |
| 20260903220501 | 67 | 216 | 2.0 | 4.0 | 0.00 | 0.00 | 0.00 | 87 | 1016.3 |
| 20260903215515 | 67 | 214 | 2.0 | 3.0 | 0.00 | 0.00 | 0.00 | 85 | 1016.5 |
| 20260903215010 | 67 | 213 | 2.0 | 3.0 | 0.00 | 0.00 | 0.00 | 84 | 1016.4 |
| 20260903214510 | 67 | 221 | 3.0 | 5.0 | 0.00 | 0.00 | 0.00 | 84 | 1016.6 |
| 20260903213510 | 67 | 224 | 4.0 | 8.0 | 0.00 | 0.00 | 0.00 | 85 | 1016.9 |
| 20260903213010 | 68 | 238 | 4.0 | 4.0 | 0.00 | 0.00 | 0.00 | 85 | 1016.9 |
| 20260903212509 | 68 | 260 | 3.0 | 4.0 | 0.00 | 0.00 | 0.00 | 86 | 1017.0 |
| 20260903211508 | 68 | 281 | 2.0 | 3.0 | 0.00 | 0.00 | 0.00 | 87 | 1017.1 |
| 20260903211008 | 68 | 270 | 2.0 | 4.0 | 0.00 | 0.00 | 0.00 | 87 | 1017.0 |
| 20260903210508 | 68 | 277 | 1.0 | 2.0 | 0.00 | 0.00 | 0.00 | 88 | 1017.0 |
| 20260903205507 | 68 | 258 | 5.0 | 11.0 | 0.00 | 0.00 | 0.00 | 86 | 1017.1 |
| 20260903205007 | 69 | 251 | 4.0 | 5.0 | 0.00 | 0.00 | 0.00 | 84 | 1016.9 |
| 20260903204507 | 69 | 247 | 5.0 | 8.0 | 0.00 | 0.00 | 0.00 | 83 | 1017.0 |
| 20260903203506 | 70 | 238 | 8.0 | 11.0 | 0.00 | 0.00 | 0.00 | 80 | 1016.8 |
| 20260903203006 | 70 | 248 | 4.0 | 6.0 | 0.00 | 0.00 | 0.00 | 79 | 1017.0 |
| 20260903202006 | 71 | 248 | 4.0 | 6.0 | 0.00 | 0.00 | 0.00 | 78 | 1016.8 |
| 20260903201505 | 71 | 245 | 7.0 | 8.0 | 0.00 | 0.00 | 0.00 | 77 | 1016.9 |
| 20260903201020 | 71 | 264 | 2.0 | 3.0 | 0.00 | 0.00 | 0.00 | 77 | 1016.8 |
| 20260903200510 | 71 | 258 | 3.0 | 5.0 | 0.00 | 0.00 | 0.00 | 77 | 1017.0 |
| 20260903195522 | 71 | 278 | 3.0 | 4.0 | 0.00 | 0.00 | 0.00 | 76 | 1016.7 |
| 20260903195011 | 71 | 279 | 4.0 | 7.0 | 0.00 | 0.00 | 0.00 | 76 | 1016.8 |
| 20260903194010 | 72 | 254 | 3.0 | 5.0 | 0.00 | 0.00 | 0.00 | 75 | 1016.9 |
| 20260903193500 | 72 | 278 | 2.0 | 4.0 | 0.00 | 0.00 | 0.00 | 74 | 1016.8 |
| 20260903193000 | 72 | 236 | 4.0 | 5.0 | 0.00 | 0.00 | 0.00 | 74 | 1016.8 |
| 20260903192512 | 72 | 194 | 2.0 | 4.0 | 0.00 | 0.00 | 0.00 | 73 | 1017.0 |
| 20260903191502 | 73 | 194 | 4.0 | 6.0 | 0.00 | 0.00 | 0.00 | 70 | 1016.9 |
| 20260903191002 | 73 | 201 | 2.0 | 5.0 | 0.00 | 0.00 | 0.00 | 70 | 1017.1 |
| 20260903190001 | 73 | 240 | 2.0 | 3.0 | 0.00 | 0.00 | 0.00 | 66 | 1016.9 |
| 20260903185501 | 74 | 250 | 3.0 | 4.0 | 0.00 | 0.00 | 0.00 | 62 | 1016.8 |
| 20260903185015 | 74 | 199 | 2.0 | 3.0 | 0.00 | 0.00 | 0.00 | 62 | 1017.0 |
| 20260903184505 | 74 | 254 | 3.0 | 5.0 | 0.00 | 0.00 | 0.00 | 61 | 1017.0 |
| 20260903183505 | 74 | 297 | 4.0 | 5.0 | 0.00 | 0.00 | 0.00 | 61 | 1016.9 |
| 20260903183004 | 74 | 230 | 3.0 | 5.0 | 0.00 | 0.00 | 0.00 | 61 | 1017.0 |
| 20260903182004 | 75 | 271 | 3.0 | 5.0 | 0.00 | 0.00 | 0.00 | 60 | 1017.1 |
| 20260903181503 | 75 | 258 | 2.0 | 3.0 | 0.00 | 0.00 | 0.00 | 60 | 1016.9 |
| 20260903180502 | 75 | 262 | 2.0 | 4.0 | 0.00 | 0.00 | 0.00 | 59 | 1017.1 |
| 20260903175502 | 76 | 271 | 4.0 | 7.0 | 0.00 | 0.00 | 0.00 | 56 | 1017.2 |
| 20260903175002 | 76 | 292 | 4.0 | 7.0 | 0.00 | 0.00 | 0.00 | 55 | 1017.1 |
| 20260903174001 | 78 | 284 | 4.0 | 5.0 | 0.00 | 0.00 | 0.00 | 53 | 1017.1 |
| 20260903173500 | 78 | 306 | 6.0 | 10.0 | 0.00 | 0.00 | 0.00 | 53 | 1017.2 |
| 20260903172500 | 78 | 289 | 5.0 | 8.0 | 0.00 | 0.00 | 0.00 | 52 | 1017.3 |
| 20260903171500 | 78 | 287 | 4.0 | 8.0 | 0.00 | 0.00 | 0.00 | 51 | 1017.4 |
| 20260903170959 | 79 | 285 | 6.0 | 9.0 | 0.00 | 0.00 | 0.00 | 50 | 1017.4 |
| 20260903170459 | 79 | 262 | 4.0 | 7.0 | 0.00 | 0.00 | 0.00 | 50 | 1017.3 |
| 20260903165458 | 80 | 265 | 6.0 | 9.0 | 0.00 | 0.00 | 0.00 | 50 | 1017.4 |
| 20260903164957 | 80 | 267 | 8.0 | 12.0 | 0.00 | 0.00 | 0.00 | 48 | 1017.0 |
| 20260903164457 | 80 | 232 | 7.0 | 10.0 | 0.00 | 0.00 | 0.00 | 48 | 1017.3 |